Other Public Products
Issued by NWS Charleston, SC

Home | Current Version | Previous Version | Text Only | Print | Product List | Glossary On
Versions: 1 2 3 4 5 6 7 8 9 10 11 12 13 14 15 16 17 18 19 20 21 22 23 24 25 26 27 28 29 30 31 32 33 34 35 36 37 38 39 40 41 42 43 44 45 46 47 48 49 50
019
FPUS82 KCHS 170427
OPUCHS

TEST...KCHS/KSAV Gateway Observations...TEST
National Weather Service Charleston SC
1200 AM EDT TUE OCT 17 2017

NOTE: "fair" indicates few or no clouds below 12,000 feet with no
significant weather and/or obstructions to visibility.

SCZ050-WAZ558-NCZ071-TXZ119-213-PAZ071-DCZ001-FLZ074-172-MI076-
NYZ176-178-MAZ016-IL014-TNZ027-NJZ106-GAZ044-MD014-170500-

...Gateway Observations for Charleston International...

CITY           SKY/WX    TMP DP  RH WIND       PRES   REMARKS
Chas Airport   CLOUDY    60  56  86 N13       30.15S
Seattle        MOCLDY    55  47  74 S13       30.10F
Charlotte      PTCLDY    53  41  63 N9        30.26S
Dallas DFW     CLEAR     61  41  47 CALM      30.28R
Dallas Love    CLEAR     58  43  57 E6        30.29R
Philladelphia  CLEAR     50  34  54 N10       30.25R
Wash National  CLEAR     54  38  54 NW14      30.26R
Baltimore      CLEAR     49  39  68 NW6       30.25R
Miami          MOCLDY    80  75  84 CALM      29.98R
Detroit        CLEAR     45  39  79 CALM      30.26S
Newark         CLEAR     48  29  47 NW16      30.22R
Laguardia      CLEAR     50  33  52 NW17G24   30.21R
J F K          CLEAR     48  31  51 N15       30.21R
Boston Logan   PTCLDY    45  33  63 NW14      30.16R
Ft. Lauderdale MOCLDY    81  75  82 SE7       29.97S
Chicago O`Hare CLEAR     51  38  60 SW8       30.20S
Chicago Midway CLEAR     51  40  65 SW6       30.22R
Houston Bush   CLEAR     60  50  69 N5        30.25R
Houston Hobby  CLEAR     68  45  43 NE13      30.23S
Nashville      CLEAR     53  43  68 N5        30.32R
Atlanta        MOCLDY    57  44  62 NE12      30.22R

$$

GAZ044-118-TXZ119-213-NCZ071-DCZ001-MDZ014-506-PAZ021-071-NJZ106-
NYZ176-178-MAZ106-OHZ011-021-055-MIZ076-KYZ091-ILZ014-INZ047-
MNZ060-ONZ431-170500-

...Gateway Observations for Savannah International...

CITY           SKY/WX    TMP DP  RH WIND       PRES   REMARKS
Savannah Arpt  MOCLDY    64  54  69 NE16G22   30.14S
Atlanta        MOCLDY    57  44  62 NE12      30.22R
Charlotte      PTCLDY    53  41  63 N9        30.26S
Dallas DFW     CLEAR     61  41  47 CALM      30.28R
Houston Bush   CLEAR     60  50  69 N5        30.25R
Wash National  CLEAR     54  38  54 NW14      30.26R
Wash Dulles    CLEAR     51  36  56 N6        30.26R
Baltimore      CLEAR     49  39  68 NW6       30.25R
Philadelphia   CLEAR     50  34  54 N10       30.25R
Newark         CLEAR     48  29  47 NW16      30.22R
Laguardia      CLEAR     50  33  52 NW17G24   30.21R
J F K          CLEAR     48  31  51 N15       30.21R
Boston         PTCLDY    45  33  63 NW14      30.16R
Pittsburg      CLEAR     42  36  79 CALM      30.30S
Akron          CLEAR     43  34  70 S5        30.29F
Cleveland      CLEAR     43  36  76 S5        30.30F
Cincinnati     CLEAR     45  40  82 CALM      30.32S
Columbus       CLEAR     42  40  94 CALM      30.31S
Detroit        CLEAR     45  39  79 CALM      30.26S
Chicago O`Hare CLEAR     51  38  60 SW8       30.20S
Minneapolis    CLEAR     58  39  49 SW6       29.97R
Indianapolis   CLEAR     47  39  74 SW5       30.31S
Toronto Canada CLEAR     43  30  61 S2        30.25S

$$




USA.gov is the U.S. government's official web portal to all federal, state and local government web resources and services.